Weather Roundup
Issued by NWS Chicago, IL

Home | Current Version | Previous Version | Graphics & Text | Print | Product List | Glossary On
Versions: 1 2 3 4 5 6 7 8 9 10 11 12 13 14 15 16 17 18 19 20 21 22 23 24 25 26 27 28 29 30 31 32 33 34 35 36 37 38 39 40 41 42 43 44 45 46 47 48 49 50
000
NZUS59 KLOT 220303
HRRLOT

CHICAGO AREA WEATHER ROUNDUP
NATIONAL WEATHER SERVICE CHICAGO/ROMEOVILLE IL
900 PM CST TUE FEB 21 2017

NOTE: "FAIR" INDICATES FEW OR NO CLOUDS BELOW 12,000 FEET WITH NO
SIGNIFICANT WEATHER AND/OR OBSTRUCTIONS TO VISIBILITY.

* THESE STATIONS ARE NOT UNDER NWS QUALITY CONTROL. THEY ALSO MAY NOT
  REPORT WEATHER SUCH AS PRECIPITATION OR FOG.

ILZ005-006-012>014-019>023-220400-
NORTHEAST ILLINOIS

CITY           SKY/WX    TMP DP  RH WIND       PRES   REMARKS
OHARE          MOCLDY    58  53  84 S9        29.88F
MIDWAY         CLOUDY    60  53  77 S8        29.89F
AURORA         PTCLDY    53  51  93 S6        29.89S FOG
LANSING*       PTCLDY    53  52  97 S6        29.91F
JOLIET*        PTCLDY    53  53  99 CALM      29.89F FOG
WAUKEGAN       MOCLDY    43  42  97 CALM      29.88R FOG
DUPAGE AIRPORT PTCLDY    51  49  92 S5        29.88S FOG
WHEELING       MOCLDY    51  48  89 S5        29.89F
KANKAKEE*      CLOUDY    51  50  98 CALM      29.91F
MORRIS*        PTCLDY    55  53  94 CALM      29.88F FOG
LEWIS AIRPORT* CLOUDY    53  53 100 S5        29.89F FOG
NORTHERLY ISL    N/A     45  44  97 SE8         N/A
$$

WIZ051-052-058>065-066-070>072-220400-
SOUTHEAST WISCONSIN

CITY           SKY/WX    TMP DP  RH WIND       PRES   REMARKS
MILWAUKEE      MOCLDY    47  44  90 CALM      29.87S FOG
KENOSHA*       CLOUDY    45  44  97 CALM      29.87S FOG
RACINE*        FOG       43  42  97 S3        29.89S VSB 1/2
WAUKESHA       PTCLDY    50  36  57 S5        29.87S
WEST BEND      CLOUDY    45  41  87 CALM      29.85S
$$

INZ001>003-010>013-019-020-220400-
NORTHWEST INDIANA

CITY           SKY/WX    TMP DP  RH WIND       PRES   REMARKS
GARY*          MOCLDY    59  54  82 CALM      29.91S
MICHIGAN CITY* NOT AVBL
RENSSELAER*    NOT AVBL
VALPARAISO     PTCLDY    55  52  89 CALM      29.92S
$$

LMZ740>746-220400-
SOUTHERN LAKE MICHIGAN

STATION/POSITION TIME  SKY/WX   TEMP WIND        PRES    VSBY
                                AIR  DIR/SP/G
                 (UTC)          (F)  (DEG/KT/KT) (MB)    (MI)
HARRISON CRIB    0240            50  160/ 12/ 13   N/A
BURNHAM HARBOR   0300            44  150/  7/  8   N/A
CALUMET HARBOR   0230            53  150/  2/  3 1012.0F
BURNS HARBOR     0240            57  180/  7/ 10 1013.5R
MICHIGAN CITY    0240            58  160/  9/ 11   N/A
$$

ABBREVIATIONS USED IN REMARKS
   TC - TEMPERATURE IN CELSIUS
  WCI - WIND CHILL INDEX
   HX - HEAT INDEX
  VSB - VISIBILITY
$$



USA.gov is the U.S. government's official web portal to all federal, state and local government web resources and services.